User: anonymous   Login
Location: Kitchener
(43.4500°N, 80.5000°W)
Time: 19:16:30
(UTC-05:00)
Language:

Cosmos 1939 Rocket - Orbit

View from above orbital plane
View from above orbital plane
View from above satellite
View from above satellite

Ground track
Ground track

The orbit data is extracted from the following two-line orbital elements,

1 19046U 88032B   17052.95966217 +.00000631 +00000-0 +51858-4 0  9992
2 19046 097.5430 103.1118 0039097 000.5161 359.6098 15.02125383555056
Epoch (UTC): 21 February 2017 23:01:54
Eccentricity: 0.0039097
inclination: 97.5430°
perigee height: 533 km
apogee height: 587 km
right ascension of ascending node: 103.1118°
argument of perigee: 0.5161°
revolutions per day: 15.02125383
mean anomaly at epoch: 359.6098°
orbit number at epoch: 55505

The dashed part of the orbit path shows where the satellite is in the earth's shadow,  

DLR